Flag for U.S.A. Weather past 2 weeks in Pocatello, Idaho, U.S.A.

23 °F

Light snow. Ice fog.

Feels Like: 10 °F
Forecast: 19 / 33 °F
Wind: 16 mph from Northeast

Location: Pocatello Regional Airport

Current Time: Nov 26, 2015 at 2:12:03 AM

Latest Report: Nov 26, 2015 at 1:53 AM

Visibility: 1 mi

Pressure: 30.03 "Hg (25.26 "Hg at 1357m altitude)

Humidity: 88%

Dew point: 20 °F

Location of PocatelloLocation

Historic Weather in Pocatello — Graph


Pocatello temperature yesterday

Maximum temperature yesterday: 35 °F (at 11:53 AM)
Minimum temperature yesterday: 23 °F (at 10:53 PM)
Average temperature yesterday: 28 °F

Past Weeks' High & Low Weather Summary

High59 °F (Nov 14, 2:53 PM)100% (Nov 19, 11:53 AM)30.60 "Hg (Nov 19, 11:53 AM)
Low15 °F (Nov 21, 6:53 AM)25% (Nov 14, 1:53 PM)29.48 "Hg (Nov 15, 11:53 PM)
Average33 °F70%30.12 "Hg
* Reported Nov 11 12:53 AM — Nov 26 12:53 AM, Pocatello, Weather by CustomWeather, © 2015

Note: Actual official high and low records may vary slightly from our data, if they occured in-between our weather recording intervals... More about our weather records


Pocatello weather history for previous 24 hours

Time TempWeatherWind HumidityBarometerVisibility
12:53 AM
Thu, Nov 26
23 °FLight snow. Ice fog.17 mph88%29.99 "Hg1 mi
11:53 PM
Wed, Nov 25
23 °FLight snow. Ice fog.21 mph88%29.96 "Hg1 mi
10:53 PM23 °FLight snow. Ice fog.14 mph92%29.94 "Hg1 mi
10:00 PM24 °FLight snow. Overcast.15 mph81%29.85 "Hg1 mi
8:53 PM25 °FLight snow. Overcast.17 mph75%29.90 "Hg7 mi
8:00 PM24 °FLight snow. Overcast.23 mph81%29.81 "Hg3 mi
6:53 PM24 °FLight snow. Ice fog.21 mph84%29.87 "Hg1 mi
5:53 PM24 °FLight snow. Overcast.16 mph84%29.85 "Hg8 mi
4:53 PM25 °FLight snow. Ice fog.20 mph88%29.83 "Hg6 mi
3:53 PM26 °FLight snow. Ice fog.21 mph92%29.80 "Hg2 mi
2:53 PM27 °FSnow. Ice fog.18 mph89%29.78 "Hg1 mi
1:53 PM29 °FLight snow. Mostly cloudy.20 mph79%29.78 "Hg4 mi
12:53 PM32 °FPartly sunny.20 mph69%29.75 "Hg10 mi
11:53 AM35 °FMore clouds than sun.18 mph52%29.75 "Hg10 mi
10:53 AM34 °FPartly sunny.16 mph54%29.76 "Hg10 mi
9:53 AM31 °FPartly sunny.15 mph67%29.76 "Hg10 mi
8:53 AM31 °FBroken clouds.8 mph82%29.73 "Hg10 mi
7:53 AM30 °FIce fog.7 mph96%29.71 "Hg6 mi
6:53 AM30 °FPartly cloudy.9 mph92%29.70 "Hg10 mi
5:53 AM31 °FPassing clouds.10 mph76%29.69 "Hg10 mi
4:53 AM30 °FOvercast.10 mph79%29.66 "Hg10 mi
3:53 AM29 °FMostly cloudy.9 mph85%29.65 "Hg10 mi
2:53 AM28 °FMostly cloudy.3 mph85%29.62 "Hg10 mi
Weather by CustomWeather, © 2015

See weather overviewHow to use our weather pages